Simultaneous Nadir Overpasses (SNOs) Predictions

Prediction of SNOs between METOP-A and TERRA Satellite Orbit:

Table of predicted SNOs for the next 14.0 days since TLE Epoch: 2/27/2021
Index Date (METOP-A) Time (METOP-A) Lat,Lon (METOP-A) SZA (METOP-A ) Date (TERRA) Time (TERRA) Lat,Lon (TERRA) SZA (TERRA ) Distance(km) Time Diff (sec)
1 03/01/2021 03:33:12 81.44, 170.54 90.98 03/01/2021 03:34:23 81.25, 172.06 91.01 33.57 71
2 03/01/2021 04:23:43 -81.34, -18.40 88.74 03/01/2021 04:23:45 -81.35, -18.50 88.75 2.14 2
3 03/01/2021 05:14:24 81.34, 148.94 91.25 03/01/2021 05:13:12 81.33, 148.86 91.21 1.38 72
4 03/03/2021 23:07:25 81.34,-119.62 90.19 03/03/2021 23:08:32 81.34,-119.77 90.21 2.48 67
5 03/03/2021 23:58:05 -81.34, 47.94 89.81 03/03/2021 23:57:59 -81.34, 47.82 89.82 2.11 6
6 03/06/2021 18:41:46 81.34, -53.32 89.12 03/06/2021 18:42:44 81.35, -53.14 89.17 3.14 58
7 03/06/2021 19:32:26 -81.34, 114.25 90.88 03/06/2021 19:32:12 -81.33, 114.09 90.91 2.82 14
8 03/09/2021 14:16:08 81.35, 12.96 88.03 03/09/2021 14:16:58 81.34, 13.06 88.06 1.77 50
9 03/09/2021 15:06:48 -81.34,-179.45 91.97 03/09/2021 15:06:25 -81.34,-179.31 91.96 2.48 23
10 03/12/2021 09:50:29 81.34, 79.60 86.97 03/12/2021 09:51:11 81.35, 79.60 86.99 1.12 42



Historial Predications of SNOs between METOP-A and TERRA
